Location: Cruquius
(52.3348°N, 4.6319°E)
Time: 22:46:37
(UTC+00:00)

USA 306 - Pass Details

Date: 12 May 2021
Orbit: 565 x 575 km, 54.0° (Epoch: 11 May)

Event Time Altitude Azimuth Distance (km) Brightness Sun altitude
Rises 20:41:22 0° 290° (WNW) 2,773 7.6 -9.6°
Reaches altitude 10° 20:43:40 10° 285° (WNW) 1,874 6.5 -9.9°
Maximum altitude 20:47:45 47° 212° (SSW) 764 3.4 -10.3°
Enters shadow 20:51:02 15° 142° (SE) 1,568 4.5 -10.6°
